Weather in Makoua

Congo     0°00′22″N   15°36′48″E
temp.,
°C
wind,
m/s
gust,
m/s
humid.,
%
clouds,
%
prec.,
mm/h
press.,
hPa
HPBL,
m
1 march, mon
mon101:00+27ssw125645 0.0 100731
04:00+27wsw1259100 0.0 100550
07:00+26s126497 0.0 100784
10:00+35sse233560 0.0 10071105
13:00+40ne242441 0.0 10032922
16:00+37nne2329100 0.0 10011988
19:00+30ssw224772 0.0 100430
22:00+28wsw225340 0.0 100770
2 march, tue
tue201:00+28wsw286460 0.0 1007381
04:00+25sw397888 0.9 1007392
07:00+25wsw288182 0.9 1008464
10:00+33sw234799 0.0 1009995
13:00+41wsw122697 0.0 10052679
16:00+34nnw263873 0.0 1003434
19:00+30wsw375686 0.1 1005288
22:00+28wsw286782 0.0 1008353
3 march, wed
wed301:00+27s276983 0.1 1007396
04:00+24sw198781 0.6 1008381
07:00+24wnw258789 0.6 1008247
10:00+32wsw2450100 0.0 10081163
13:00+36nw2238100 0.0 10052192
16:00+36nw323796 0.0 10032317
19:00+28s376998 0.6 1005299
22:00+26ssw1380100 0.2 1007118
4 march, thu
thu401:00+25sw127990 0.2 100745
04:00+23w398933 0.8 1006331
07:00+24w3108819 0.8 1008477
10:00+32w355420 0.0 10081169
13:00+36wsw233919 0.0 10051901
16:00+33wsw344696 0.1 10021133
19:00+24sw278588 2.4 1006220
22:00+24n1190100 0.6 100941
5 march, fri
fri501:00+24ese2489100 1.2 1008121
04:00+23sw31089100 2.4 1008368
07:00+23sw1689100 2.4 1010381
10:00+29ssw355995 0.0 10101249
13:00+33sw344781 0.0 10081638
16:00+31s335373 1.6 10061277
19:00+25wsw128275 3.4 100831
22:00+24wsw248870 0.0 1010127